Weather History for Lewisburg, WV

Change the Weather History Date:

Sunday, October 6, 2013

  Actual Average Record
Temperature  
Mean Temperature 64 °F 54 °F  
Max Temperature 78 °F 68 °F 81 °F (2007)
Min Temperature 51 °F 41 °F 26 °F (1988)
Degree Days  
Heating Degree Days 0    
Month to date heating degree days  
Since 1 July heating degree days  
Cooling Degree Days 0    
Month to date cooling degree days  
Year to date cooling degree days  
Growing Degree Days 14 (Base 50)    
Moisture  
Dew Point 53 °F    
Average Humidity 72    
Maximum Humidity 100    
Minimum Humidity 39    
Precipitation  
Precipitation 0.00 in 0.09 in 0.88 in (2014)
Month to date precipitation 0.51  
Year to date precipitation 31.89  
Snow  
Snow 0.00 in - - ()
Month to date snowfall  
Since 1 July snowfall  
Since 1 September snowfall  
Snow Depth -    
Sea Level Pressure  
Sea Level Pressure 30.05 in    
Wind  
Wind Speed 3 mph (South)    
Max Wind Speed 14 mph    
Max Gust Speed 21 mph    
Visibility 7 miles    
Events Fog    
T = Trace of Precipitation, MM = Missing Value Source: NWS Daily Summary

Daily Weather History Graph

Daily Weather History Graph

Search for Another Location

Airport:

Trip Planner

Search our weather history database for the weather conditions in past years. The results will help you decide how hot, cold, wet, or windy it might be!

Date:

Astronomy

Oct. 06, 2013 Rise Set
Actual Time 7:21 AM EDT 6:56 PM EDT
Civil Twilight 6:55 AM EDT 7:22 PM EDT
Nautical Twilight 6:25 AM EDT 7:53 PM EDT
Astronomical Twilight 5:54 AM EDT 8:23 PM EDT
Moon 9:02 AM EDT (10/6) 7:57 PM EDT (10/6)
Length of Visible Light 12h 27m
Length of Day
11h 34m
Waxing Crescent, 3% of the Moon is Illuminated
Oct 6
Waxing Crescent
Oct 11
First Quarter
Oct 18
Full
Oct 26
Last Quarter
Nov 3
New

Hourly Weather History & Observations

Time (EDT) Temp. Dew Point Humidity Pressure Visibility Wind Dir Wind Speed Gust Speed Precip Events Conditions
12:15 AM 57.2 °F 55.4 °F 94% 30.13 in 3.0 mi Calm Calm - N/A   Clear
12:35 AM 55.4 °F 55.4 °F 100% 30.13 in 4.0 mi NNE 3.5 mph - N/A   Clear
12:55 AM 59.0 °F 55.4 °F 88% 30.12 in 3.0 mi NNE 3.5 mph - N/A   Clear
1:15 AM 55.4 °F 53.6 °F 94% 30.12 in 3.0 mi Calm Calm - N/A   Clear
1:35 AM 55.4 °F 53.6 °F 94% 30.12 in 0.2 mi Calm Calm - N/A Fog Fog
1:55 AM 55.4 °F 53.6 °F 94% 30.12 in 0.2 mi Calm Calm - N/A Fog Fog
2:15 AM 53.6 °F 51.8 °F 94% 30.12 in 0.2 mi Calm Calm - N/A Fog Fog
2:35 AM 53.6 °F 51.8 °F 94% 30.11 in 0.2 mi Calm Calm - N/A Fog Fog
2:55 AM 53.6 °F 51.8 °F 94% 30.11 in 3.0 mi NNE 3.5 mph - N/A   Scattered Clouds
3:15 AM 53.6 °F 53.6 °F 100% 30.10 in 2.0 mi North 3.5 mph - N/A   Clear
3:35 AM 53.6 °F 51.8 °F 94% 30.10 in 0.8 mi Calm Calm - N/A   Mist
3:55 AM 53.6 °F 51.8 °F 94% 30.10 in 0.8 mi Calm Calm - N/A   Mostly Cloudy
4:15 AM 53.6 °F 51.8 °F 94% 30.09 in 0.2 mi Calm Calm - N/A Fog Fog
4:35 AM 53.6 °F 51.8 °F 94% 30.09 in 0.2 mi Calm Calm - N/A Fog Fog
4:55 AM 53.6 °F 51.8 °F 94% 30.09 in 0.2 mi Calm Calm - N/A Fog Fog
5:15 AM 51.8 °F 50.0 °F 94% 30.09 in 0.2 mi Calm Calm - N/A Fog Fog
5:35 AM 51.8 °F 50.0 °F 94% 30.09 in 0.2 mi Calm Calm - N/A Fog Fog
5:55 AM 51.8 °F 50.0 °F 94% 30.09 in 0.2 mi Calm Calm - N/A Fog Fog
6:15 AM 51.8 °F 51.8 °F 100% 30.10 in 0.2 mi Calm Calm - N/A Fog Fog
6:35 AM 53.6 °F 51.8 °F 94% 30.10 in 0.2 mi Calm Calm - N/A Fog Fog
6:55 AM 51.8 °F 50.0 °F 94% 30.10 in 0.2 mi Calm Calm - N/A Fog Fog
7:15 AM 51.8 °F 50.0 °F 94% 30.11 in 0.2 mi Calm Calm - N/A Fog Fog
7:35 AM 51.8 °F 50.0 °F 94% 30.11 in 0.2 mi North 3.5 mph - N/A Fog Fog
7:55 AM 51.8 °F 50.0 °F 94% 30.11 in 0.2 mi Calm Calm - N/A Fog Fog
8:15 AM 51.8 °F 50.0 °F 94% 30.11 in 0.2 mi Calm Calm - N/A Fog Fog
8:35 AM 51.8 °F 51.8 °F 100% 30.11 in 0.5 mi NNE 6.9 mph - N/A Fog Fog
8:55 AM 53.6 °F 53.6 °F 100% 30.11 in 5.0 mi Calm Calm - N/A   Scattered Clouds
9:15 AM 55.4 °F 55.4 °F 100% 30.11 in 7.0 mi Calm Calm - N/A   Clear
9:35 AM 57.2 °F 55.4 °F 94% 30.10 in 7.0 mi Calm Calm - N/A   Clear
9:55 AM 59.0 °F 57.2 °F 94% 30.10 in 10.0 mi Calm Calm - N/A   Clear
10:15 AM 60.8 °F 59.0 °F 94% 30.10 in 10.0 mi NNE 3.5 mph - N/A   Clear
10:35 AM 64.4 °F 59.0 °F 83% 30.10 in 10.0 mi Calm Calm - N/A   Clear
10:55 AM 69.8 °F 59.0 °F 68% 30.09 in 10.0 mi Calm Calm - N/A   Clear
11:15 AM 71.6 °F 59.0 °F 64% 30.09 in 10.0 mi SSE 5.8 mph - N/A   Clear
11:35 AM 71.6 °F 57.2 °F 60% 30.08 in 10.0 mi SSW 9.2 mph - N/A   Clear
11:55 AM 73.4 °F 57.2 °F 57% 30.08 in 10.0 mi SSW 5.8 mph - N/A   Clear
12:15 PM 73.4 °F 55.4 °F 53% 30.07 in 10.0 mi SSW 10.4 mph - N/A   Scattered Clouds
12:35 PM 73.4 °F 55.4 °F 53% 30.06 in 10.0 mi SSW 8.1 mph - N/A   Mostly Cloudy
12:55 PM 75.2 °F 55.4 °F 50% 30.05 in 10.0 mi SSW 11.5 mph 16.1 mph N/A   Mostly Cloudy
1:15 PM 75.2 °F 51.8 °F 44% 30.05 in 10.0 mi South 8.1 mph - N/A   Scattered Clouds
1:35 PM 77.0 °F 51.8 °F 41% 30.04 in 10.0 mi SSW 12.7 mph 16.1 mph N/A   Scattered Clouds
1:55 PM 77.0 °F 53.6 °F 44% 30.03 in 10.0 mi SSW 13.8 mph 17.3 mph N/A   Scattered Clouds
2:15 PM 77.0 °F 53.6 °F 44% 30.02 in 10.0 mi SSW 10.4 mph 16.1 mph N/A   Scattered Clouds
2:35 PM 78.8 °F 51.8 °F 39% 30.01 in 10.0 mi South 10.4 mph 16.1 mph N/A   Scattered Clouds
2:55 PM 77.0 °F 53.6 °F 44% 30.00 in 10.0 mi South 9.2 mph - N/A   Scattered Clouds
3:15 PM 75.2 °F 53.6 °F 47% 29.99 in 10.0 mi SSE 6.9 mph - N/A   Mostly Cloudy
3:35 PM 77.0 °F 51.8 °F 41% 29.98 in 10.0 mi South 8.1 mph - N/A   Mostly Cloudy
3:55 PM 78.8 °F 51.8 °F 39% 29.98 in 10.0 mi SSW 12.7 mph 17.3 mph N/A   Scattered Clouds
4:15 PM 77.0 °F 51.8 °F 41% 29.98 in 10.0 mi South 11.5 mph 16.1 mph N/A   Scattered Clouds
4:35 PM 77.0 °F 51.8 °F 41% 29.98 in 10.0 mi South 10.4 mph - N/A   Clear
4:55 PM 75.2 °F 50.0 °F 41% 29.97 in 10.0 mi South 10.4 mph 20.7 mph N/A   Clear
5:15 PM 75.2 °F 50.0 °F 41% 29.97 in 10.0 mi South 12.7 mph 18.4 mph N/A   Clear
5:35 PM 73.4 °F 51.8 °F 47% 29.97 in 10.0 mi South 9.2 mph 18.4 mph N/A   Clear
5:55 PM 73.4 °F 51.8 °F 47% 29.97 in 10.0 mi SSE 10.4 mph - N/A   Clear
6:15 PM 71.6 °F 51.8 °F 50% 29.97 in 10.0 mi SSE 10.4 mph - N/A   Clear
6:35 PM 71.6 °F 53.6 °F 53% 29.98 in 10.0 mi South 4.6 mph - N/A   Clear
6:55 PM 69.8 °F 53.6 °F 56% 29.97 in 10.0 mi SSE 4.6 mph - N/A   Clear
7:15 PM 68.0 °F 53.6 °F 60% 29.98 in 10.0 mi SSE 3.5 mph - N/A   Clear
7:35 PM 68.0 °F 51.8 °F 56% 29.98 in 10.0 mi Calm Calm - N/A   Clear
7:55 PM 66.2 °F 53.6 °F 64% 29.98 in 10.0 mi SSE 4.6 mph - N/A   Clear
8:15 PM 66.2 °F 53.6 °F 64% 29.97 in 10.0 mi SSE 5.8 mph - N/A   Clear
8:35 PM 66.2 °F 53.6 °F 64% 29.97 in 10.0 mi SSE 6.9 mph - N/A   Clear
8:55 PM 66.2 °F 53.6 °F 64% 29.97 in 10.0 mi South 9.2 mph - N/A   Clear
9:15 PM 66.2 °F 53.6 °F 64% 29.96 in 10.0 mi South 5.8 mph - N/A   Clear
9:35 PM 64.4 °F 53.6 °F 68% 29.98 in 10.0 mi South 4.6 mph - N/A   Clear
9:55 PM 64.4 °F 53.6 °F 68% 29.98 in 10.0 mi South 4.6 mph - N/A   Clear
10:15 PM 64.4 °F 53.6 °F 68% 29.98 in 10.0 mi South 4.6 mph - N/A   Clear
10:35 PM 64.4 °F 53.6 °F 68% 29.98 in 10.0 mi Calm Calm - N/A   Scattered Clouds
10:55 PM 64.4 °F 53.6 °F 68% 29.97 in 10.0 mi South 3.5 mph - N/A   Clear
11:15 PM 64.4 °F 53.6 °F 68% 29.96 in 10.0 mi South 4.6 mph - N/A   Clear
11:35 PM 62.6 °F 53.6 °F 72% 29.96 in 10.0 mi Calm Calm - N/A   Clear
11:55 PM 62.6 °F 53.6 °F 72% 29.96 in 10.0 mi Calm Calm - N/A   Scattered Clouds